Terug naar catalogus

PEGASUS DEB

ActiefPO
NORAD 39932·DEBRIS·🇺🇸 United States

Gelanceerd May 19, 1994 vanaf Vandenberg Space Force Base

Loading…

Volgende Passages (komende 24 uur)

TLE

VerouderendSource: Space-Track

Epoch: Sep 8, 2026, 22:55 UTC

1 39932U 94029AGF 26251.95524281  .00000874  00000-0  20398-3 0  9996
2 39932  81.8167 132.3578 0293790 220.8771 137.0052 14.30736663636423

Volg PEGASUS DEB in realtime met AllMySat

Download on the App Store